Tracking 19634 objects as of 21-May-2019
HD Live streaming from Space Station
objects crossing your sky now

ASTRID 2

Track ASTRID 2 now!
10-day predictions
ASTRID 2 is classified as:


NORAD ID: 25568
Int'l Code: 1998-072B
Perigee: 978.0 km
Apogee: 1,017.0 km
Inclination: 83.0 °
Period: 104.9 minutes
Semi major axis: 7368 km
RCS: 0.534 m2 (medium)
Launch date: December 10, 1998
Source: Sweden (SWED)
Launch site: PLESETSK MISSILE AND SPACE COMPLEX (PKMTR)
aabbcc
Your satellite tracking list
Your tracking list is empty




NASA's NSSDC Master Catalog

Two Line Element Set (TLE):
1 25568U 98072B   19140.73720647  .00000050  00000-0  37358-4 0  9998
2 25568  82.9501 189.3155 0026469  70.4636  40.5979 13.72559070 23781
Source of the keplerian elements: AFSPC